Location: Newark
(48.3453°N, 0.5589°E)
Time: 21:02:59
(UTC+00:00)

A-11 Canister half - Pass Details

Date: 13 December 2019
Orbit: 1517 x 1683 km, 47.2° (Epoch: 21 January)

Event Time Altitude Azimuth Distance (km) Brightness Sun altitude
Rises 10:55:32 0° 220° (SW) 4,709 12.1 17.4°
Reaches altitude 10° 10:58:41 10° 215° (SW) 3,748 11.8 17.5°
Maximum altitude 11:07:38 48° 145° (SE) 2,017 10.7 17.8°
Drops below altitude 10° 11:16:54 10° 76° (ENE) 3,885 11.1 18.1°
Sets 11:20:13 0° 71° (ENE) 4,893 11.5 18.2°
